Location: Newark
(34.3481°N, 134.0494°E)
Time: 05:52:46
(UTC+00:00)

Vanguard 3 - Pass Details

Date: 03 February 2020
Orbit: 508 x 3263 km, 33.3° (Epoch: 17 February)

Event Time Altitude Azimuth Distance (km) Brightness Sun altitude
Rises 05:07:59 0° 232° (SW) 5,336 12.3 32.6°
Reaches altitude 10° 05:11:00 10° 229° (SW) 4,647 12.3 32.3°
Maximum altitude 05:25:09 63° 152° (SSE) 3,148 10.8 30.6°
Drops below altitude 10° 05:44:41 10° 78° (ENE) 6,189 11.3 28.1°
Sets 05:49:27 0° 76° (ENE) 7,129 11.5 27.5°
